星链-5733 (STARLINK-5733 )

导读 | 星芒AI

STARLINK-5733 是 SpaceX Starlink 卫星互联网项目中的一颗低轨道卫星,属于第 12 批组网卫星(Batch 12)。该卫星于 2021 年 10 月 31 日由猎鹰 9 号火箭从肯尼迪航天中心发射升空,部署在约 540 公里的轨道高度。Starlink 项目旨在通过大规模卫星群提供全球高速互联网服务,尤其关注偏远地区。STARLINK-5733 与其他 Starlink 卫星协同工作,支持宽带通信,提升全球网络覆盖与连接效率。

基本信息
目录编号:
56925
目录名称:
STARLINK-5733
国际标识:
2023-083BB
轨道中心:
EARTH
卫星名称:
星链-5733
卫星全名:
星链-5733 (STARLINK-5733 )
卫星状态:
在轨 (已飞行876 天)
发射日期:
2023-06-12 UTC
国别 :
美国 (US)
星等 :
--
轨道信息
数据来源 国际轨道数据 AOE轨道数据
星历时间 2025-11-03T20:22:59+0800
1天前
查看轨道信息
2025-11-03T08:00:00+0800
1天前
查看轨道信息
半长轴 6937.184km 6937.128km
偏心率 0.0000667 0.0000319
轨道倾角 43.004° 43.003°
近地点辐角 269.454° 306.999°
升交点赤经 34.101° 36.907°
平近点角 90.623° 138.931°
近地点 558.586km 558.771km
远地点 559.512km 559.215km
周期 95.837分钟 95.836分钟
每日圈数 15.025467 15.025649
详细信息
固有亮度:
5
最大亮度:
2.4
卫星平台:
Starlink v1.5
覆盖范围:
全球
运营商:
太空探索技术公司
运营商所在国:
美国
制造商(研发单位):
太空探索技术公司
制造商所在国:
美国
使用方式:
暂无
卫星简介
星链(Starlink)计划是由太空探索技术公司(SpaceX)提出的一个巨型低轨卫星互联网星座项目,计划在2019年至2024年间在太空搭建由约1.2万颗卫星组成的“星链”网络,其中1584颗将部署在地球上空550千米处的近地轨道,并从2020年开始工作。该卫星仍在工作。
2D轨道图
3D轨道图
轨道高度分析图
轨道倾角分析图
轨道综合分析图
查看轨道综合分析图